nws-alerts: Checking more than four warning/county codes can delay the loading of your pages. You should use a cron job to get the data.
EllijayWeather Station Historical Data
Daily Summary for April 29, 2019 Units:  Metric    English   Both
Daily Weekly Monthly Yearly Custom
  High: Low: Average:
Temperature: 26.7 °C 11.3 °C 19.3 °C
Dew Point: 17.3 °C 10.7 °C 14.3 °C
Humidity: 97% 50% 76%
Wind Speed: 6.4km/h 0km/h 0.3km/h
Wind Gust: 11.3km/h - -
Wind- - ESE
Pressure: 1023.2 hPa 1019.2 hPa -
Precipitation: 0 mm    
Historical Graphs
 
 
Tabular Data for April 29, 2019
Time Temperature Dew Point Pressure Wind Wind Speed Wind Gust Humidity Rainfall Rate (Hourly) solar
00:04 15.2 °C 14.1 °C 1019.5 hPa Calm     93% 0 mm meteobridge W/m2
00:09 15.1 °C 14 °C 1019.5 hPa Calm     93% 0 mm meteobridge W/m2
00:14 15.1 °C 14 °C 1019.5 hPa Calm     93% 0 mm meteobridge W/m2
00:19 15 °C 13.9 °C 1019.2 hPa Calm     93% 0 mm meteobridge W/m2
00:24 14.9 °C 13.8 °C 1019.2 hPa Calm     93% 0 mm meteobridge W/m2
00:29 14.9 °C 13.8 °C 1019.5 hPa Calm     93% 0 mm meteobridge W/m2
00:34 14.8 °C 13.7 °C 1019.5 hPa Calm     93% 0 mm meteobridge W/m2
00:39 14.7 °C 13.6 °C 1019.5 hPa Calm     93% 0 mm meteobridge W/m2
00:44 14.7 °C 13.6 °C 1019.5 hPa Calm     93% 0 mm meteobridge W/m2
00:49 14.6 °C 13.5 °C 1019.5 hPa Calm     93% 0 mm meteobridge W/m2
00:54 14.5 °C 13.4 °C 1019.9 hPa Calm     93% 0 mm meteobridge W/m2
00:59 14.4 °C 13.4 °C 1019.9 hPa Calm     94% 0 mm meteobridge W/m2
01:04 14.3 °C 13.3 °C 1019.9 hPa Calm     94% 0 mm meteobridge W/m2
01:09 14.2 °C 13.1 °C 1019.9 hPa Calm     93% 0 mm meteobridge W/m2
01:14 14.1 °C 13.1 °C 1019.9 hPa Calm     94% 0 mm meteobridge W/m2
01:19 14.1 °C 13.1 °C 1019.9 hPa Calm     94% 0 mm meteobridge W/m2
01:24 14 °C 13 °C 1019.9 hPa Calm     94% 0 mm meteobridge W/m2
01:29 14 °C 13 °C 1019.9 hPa Calm     94% 0 mm meteobridge W/m2
01:34 13.9 °C 12.9 °C 1019.9 hPa Calm     94% 0 mm meteobridge W/m2
01:39 13.8 °C 12.9 °C 1020.2 hPa Calm     94% 0 mm meteobridge W/m2
01:44 13.8 °C 13 °C 1019.9 hPa Calm     95% 0 mm meteobridge W/m2
01:49 13.8 °C 13 °C 1019.9 hPa Calm     95% 0 mm meteobridge W/m2
01:54 13.7 °C 12.8 °C 1019.9 hPa Calm     94% 0 mm meteobridge W/m2
01:59 13.6 °C 12.7 °C 1019.9 hPa Calm     94% 0 mm meteobridge W/m2
02:04 13.6 °C 12.7 °C 1019.9 hPa Calm     94% 0 mm meteobridge W/m2
02:09 13.4 °C 12.6 °C 1019.9 hPa Calm     95% 0 mm meteobridge W/m2
02:14 13.4 °C 12.6 °C 1019.9 hPa Calm     95% 0 mm meteobridge W/m2
02:19 13.3 °C 12.5 °C 1019.9 hPa Calm     95% 0 mm meteobridge W/m2
02:24 13.3 °C 12.5 °C 1020.2 hPa Calm     95% 0 mm meteobridge W/m2
02:29 13.2 °C 12.4 °C 1019.9 hPa Calm     95% 0 mm meteobridge W/m2
02:34 13.2 °C 12.4 °C 1019.9 hPa Calm     95% 0 mm meteobridge W/m2
02:39 13.2 °C 12.4 °C 1019.9 hPa Calm     95% 0 mm meteobridge W/m2
02:44 13.1 °C 12.3 °C 1019.9 hPa Calm     95% 0 mm meteobridge W/m2
02:49 13.1 °C 12.3 °C 1019.9 hPa Calm     95% 0 mm meteobridge W/m2
02:54 12.9 °C 12.1 °C 1019.9 hPa Calm     95% 0 mm meteobridge W/m2
02:59 12.9 °C 12.1 °C 1019.9 hPa Calm     95% 0 mm meteobridge W/m2
03:04 12.8 °C 12 °C 1019.9 hPa Calm     95% 0 mm meteobridge W/m2
03:09 12.8 °C 12 °C 1019.9 hPa Calm     95% 0 mm meteobridge W/m2
03:14 12.8 °C 12 °C 1019.9 hPa Calm     95% 0 mm meteobridge W/m2
03:19 12.7 °C 11.9 °C 1019.9 hPa Calm     95% 0 mm meteobridge W/m2
03:24 12.6 °C 11.8 °C 1019.9 hPa Calm     95% 0 mm meteobridge W/m2
03:29 12.6 °C 11.8 °C 1019.9 hPa Calm     95% 0 mm meteobridge W/m2
03:34 12.4 °C 11.6 °C 1020.2 hPa Calm     95% 0 mm meteobridge W/m2
03:39 12.4 °C 11.6 °C 1020.2 hPa Calm     95% 0 mm meteobridge W/m2
03:44 12.3 °C 11.5 °C 1020.2 hPa Calm     95% 0 mm meteobridge W/m2
03:49 12.3 °C 11.5 °C 1020.2 hPa Calm     95% 0 mm meteobridge W/m2
03:54 12.2 °C 11.4 °C 1020.2 hPa Calm     95% 0 mm meteobridge W/m2
03:59 12.2 °C 11.4 °C 1020.2 hPa Calm     95% 0 mm meteobridge W/m2
04:04 12.2 °C 11.4 °C 1020.2 hPa Calm     95% 0 mm meteobridge W/m2
04:09 12.1 °C 11.3 °C 1020.2 hPa Calm     95% 0 mm meteobridge W/m2
04:14 12 °C 11.2 °C 1020.5 hPa Calm     95% 0 mm meteobridge W/m2
04:19 12 °C 11.2 °C 1020.2 hPa Calm     95% 0 mm meteobridge W/m2
04:24 11.9 °C 11.1 °C 1020.2 hPa Calm     95% 0 mm meteobridge W/m2
04:29 11.9 °C 11.1 °C 1020.2 hPa Calm     95% 0 mm meteobridge W/m2
04:34 11.8 °C 11 °C 1020.2 hPa Calm     95% 0 mm meteobridge W/m2
04:39 11.8 °C 11 °C 1020.2 hPa Calm     95% 0 mm meteobridge W/m2
04:44 11.8 °C 11.2 °C 1020.2 hPa Calm     96% 0 mm meteobridge W/m2
04:49 11.7 °C 11.1 °C 1020.2 hPa Calm     96% 0 mm meteobridge W/m2
04:54 11.7 °C 10.9 °C 1020.2 hPa Calm     95% 0 mm meteobridge W/m2
04:59 11.6 °C 10.8 °C 1020.2 hPa Calm     95% 0 mm meteobridge W/m2
05:04 11.6 °C 11 °C 1020.2 hPa Calm     96% 0 mm meteobridge W/m2
05:09 11.6 °C 11 °C 1020.2 hPa Calm     96% 0 mm meteobridge W/m2
05:14 11.6 °C 11 °C 1020.2 hPa Calm     96% 0 mm meteobridge W/m2
05:19 11.6 °C 11 °C 1020.2 hPa Calm     96% 0 mm meteobridge W/m2
05:24 11.6 °C 11 °C 1020.2 hPa Calm     96% 0 mm meteobridge W/m2
05:29 11.6 °C 11 °C 1020.2 hPa Calm     96% 0 mm meteobridge W/m2
05:34 11.5 °C 10.9 °C 1020.5 hPa Calm     96% 0 mm meteobridge W/m2
05:39 11.5 °C 10.9 °C 1020.5 hPa Calm     96% 0 mm meteobridge W/m2
05:44 11.5 °C 10.9 °C 1020.2 hPa Calm     96% 0 mm meteobridge W/m2
05:49 11.5 °C 10.9 °C 1020.5 hPa Calm     96% 0 mm meteobridge W/m2
05:54 11.5 °C 10.9 °C 1020.5 hPa Calm     96% 0 mm meteobridge W/m2
05:59 11.5 °C 10.9 °C 1020.5 hPa Calm     96% 0 mm meteobridge W/m2
06:04 11.4 °C 10.8 °C 1020.5 hPa Calm     96% 0 mm meteobridge W/m2
06:09 11.4 °C 10.8 °C 1020.5 hPa Calm     96% 0 mm meteobridge W/m2
06:14 11.4 °C 10.8 °C 1020.5 hPa Calm     96% 0 mm meteobridge W/m2
06:19 11.4 °C 10.8 °C 1020.5 hPa Calm     96% 0 mm meteobridge W/m2
06:24 11.4 °C 10.8 °C 1020.5 hPa Calm     96% 0 mm meteobridge W/m2
06:29 11.3 °C 10.7 °C 1020.5 hPa Calm     96% 0 mm meteobridge W/m2
06:34 11.3 °C 10.7 °C 1020.9 hPa Calm     96% 0 mm meteobridge W/m2
06:39 11.3 °C 10.7 °C 1020.9 hPa Calm     96% 0 mm meteobridge W/m2
06:44 11.3 °C 10.8 °C 1020.9 hPa Calm     97% 0 mm meteobridge W/m2
06:49 11.4 °C 10.9 °C 1021.2 hPa Calm     97% 0 mm meteobridge W/m2
06:54 11.4 °C 10.8 °C 1021.2 hPa Calm     96% 0 mm meteobridge W/m2
06:59 11.4 °C 10.9 °C 1021.2 hPa Calm     97% 0 mm meteobridge W/m2
07:04 11.5 °C 11 °C 1021.2 hPa Calm     97% 0 mm meteobridge W/m2
07:09 11.5 °C 11 °C 1021.6 hPa Calm     97% 0 mm meteobridge W/m2
07:14 11.5 °C 11 °C 1021.6 hPa Calm     97% 0 mm meteobridge W/m2
07:19 11.6 °C 11.1 °C 1021.6 hPa Calm     97% 0 mm meteobridge W/m2
07:24 11.6 °C 11.1 °C 1021.9 hPa Calm     97% 0 mm meteobridge W/m2
07:29 11.6 °C 11 °C 1021.6 hPa Calm     96% 0 mm meteobridge W/m2
07:34 11.6 °C 11.1 °C 1021.9 hPa Calm     97% 0 mm meteobridge W/m2
07:39 11.7 °C 11.2 °C 1021.9 hPa Calm     97% 0 mm meteobridge W/m2
07:44 11.8 °C 11.3 °C 1021.9 hPa Calm     97% 0 mm meteobridge W/m2
07:49 11.8 °C 11.3 °C 1021.9 hPa Calm     97% 0 mm meteobridge W/m2
07:54 11.9 °C 11.4 °C 1022.2 hPa Calm     97% 0 mm meteobridge W/m2
07:59 12 °C 11.5 °C 1022.2 hPa Calm     97% 0 mm meteobridge W/m2
08:04 12.1 °C 11.6 °C 1022.2 hPa Calm     97% 0 mm meteobridge W/m2
08:09 12.2 °C 11.7 °C 1022.2 hPa Calm     97% 0 mm meteobridge W/m2
08:14 12.3 °C 11.8 °C 1022.2 hPa Calm     97% 0 mm meteobridge W/m2
08:19 12.4 °C 11.9 °C 1022.2 hPa Calm     97% 0 mm meteobridge W/m2
08:24 12.6 °C 12.1 °C 1022.2 hPa Calm     97% 0 mm meteobridge W/m2
08:29 12.8 °C 12.3 °C 1022.2 hPa Calm     97% 0 mm meteobridge W/m2
08:34 13.1 °C 12.6 °C 1022.2 hPa Calm     97% 0 mm meteobridge W/m2
08:39 13.3 °C 12.8 °C 1022.2 hPa Calm     97% 0 mm meteobridge W/m2
08:44 13.6 °C 13.1 °C 1022.2 hPa Calm     97% 0 mm meteobridge W/m2
08:49 13.8 °C 13.3 °C 1022.6 hPa Calm     97% 0 mm meteobridge W/m2
08:54 14.1 °C 13.6 °C 1022.6 hPa Calm     97% 0 mm meteobridge W/m2
08:59 14.4 °C 13.9 °C 1022.6 hPa Calm     97% 0 mm meteobridge W/m2
09:04 14.8 °C 14.2 °C 1022.6 hPa Calm     96% 0 mm meteobridge W/m2
09:09 15.4 °C 13.6 °C 1022.6 hPa Calm   6.4 km/h 89% 0 mm meteobridge W/m2
09:14 16.3 °C 13.2 °C 1022.6 hPa Calm   8 km/h 82% 0 mm meteobridge W/m2
09:19 17.2 °C 13.3 °C 1022.6 hPa SE 1.4 km/h 3.2 km/h 78% 0 mm meteobridge W/m2
09:24 18 °C 12.9 °C 1022.6 hPa SE 3.2 km/h 3.2 km/h 72% 0 mm meteobridge W/m2
09:29 18.4 °C 13 °C 1022.6 hPa Calm   1.6 km/h 71% 0 mm meteobridge W/m2
09:34 18.7 °C 13.1 °C 1022.6 hPa East 3.2 km/h 4.8 km/h 70% 0 mm meteobridge W/m2
09:39 18.8 °C 12.8 °C 1022.6 hPa Calm   6.4 km/h 68% 0 mm meteobridge W/m2
09:44 18.9 °C 12.9 °C 1022.6 hPa ESE 1.4 km/h 1.6 km/h 68% 0 mm meteobridge W/m2
09:49 19.1 °C 13.3 °C 1022.6 hPa Calm   1.6 km/h 69% 0 mm meteobridge W/m2
09:54 19.2 °C 13.1 °C 1022.6 hPa Calm   8 km/h 68% 0 mm meteobridge W/m2
09:59 19.3 °C 13 °C 1022.6 hPa Calm   6.4 km/h 67% 0 mm meteobridge W/m2
10:04 19.4 °C 13.6 °C 1022.6 hPa Calm   6.4 km/h 69% 0 mm meteobridge W/m2
10:09 19.6 °C 13.3 °C 1022.6 hPa Calm   6.4 km/h 67% 0 mm meteobridge W/m2
10:14 19.8 °C 13.5 °C 1022.6 hPa SE 1.4 km/h 1.6 km/h 67% 0 mm meteobridge W/m2
10:19 19.9 °C 13.4 °C 1022.6 hPa East 3.2 km/h 9.7 km/h 66% 0 mm meteobridge W/m2
10:24 20 °C 13.5 °C 1022.6 hPa East 6.4 km/h 8 km/h 66% 0 mm meteobridge W/m2
10:29 20.1 °C 13.5 °C 1022.6 hPa East 6.4 km/h 9.7 km/h 66% 0 mm meteobridge W/m2
10:34 20.3 °C 13.5 °C 1022.9 hPa Calm   11.3 km/h 65% 0 mm meteobridge W/m2
10:39 20.4 °C 13.8 °C 1022.9 hPa ESE 1.4 km/h 6.4 km/h 66% 0 mm meteobridge W/m2
10:44 20.8 °C 13.7 °C 1022.9 hPa SE 1.4 km/h 8 km/h 64% 0 mm meteobridge W/m2
10:49 21.1 °C 14 °C 1022.9 hPa Calm   3.2 km/h 64% 0 mm meteobridge W/m2
10:54 21.4 °C 14.3 °C 1022.9 hPa Calm   6.4 km/h 64% 0 mm meteobridge W/m2
10:59 21.6 °C 14.3 °C 1022.9 hPa Calm   1.6 km/h 63% 0 mm meteobridge W/m2
11:04 21.7 °C 14.3 °C 1022.9 hPa Calm   9.7 km/h 63% 0 mm meteobridge W/m2
11:09 21.8 °C 14.4 °C 1023.2 hPa Calm   6.4 km/h 63% 0 mm meteobridge W/m2
11:14 21.9 °C 14.5 °C 1023.2 hPa Calm   3.2 km/h 63% 0 mm meteobridge W/m2
11:19 22.2 °C 14.8 °C 1023.2 hPa Calm   1.6 km/h 63% 0 mm meteobridge W/m2
11:24 22.3 °C 14.9 °C 1023.2 hPa Calm     63% 0 mm meteobridge W/m2
11:29 22.5 °C 14.9 °C 1023.2 hPa ESE 1.4 km/h 3.2 km/h 62% 0 mm meteobridge W/m2
11:34 22.8 °C 15.1 °C 1023.2 hPa Calm   3.2 km/h 62% 0 mm meteobridge W/m2
11:39 23 °C 15.3 °C 1023.2 hPa Calm   1.6 km/h 62% 0 mm meteobridge W/m2
11:44 23.2 °C 15 °C 1023.2 hPa Calm   1.6 km/h 60% 0 mm meteobridge W/m2
11:49 23.3 °C 15.4 °C 1023.2 hPa Calm     61% 0 mm meteobridge W/m2
11:54 23.3 °C 15.1 °C 1023.2 hPa Calm   3.2 km/h 60% 0 mm meteobridge W/m2
11:59 23.4 °C 15.4 °C 1023.2 hPa Calm     61% 0 mm meteobridge W/m2
12:04 23.8 °C 15.8 °C 1023.2 hPa Calm     61% 0 mm meteobridge W/m2
12:09 24.2 °C 16.5 °C 1022.9 hPa Calm   1.6 km/h 62% 0 mm meteobridge W/m2
12:14 24.5 °C 16.2 °C 1022.9 hPa ESE 1.4 km/h 1.6 km/h 60% 0 mm meteobridge W/m2
12:19 24.5 °C 16 °C 1022.9 hPa ESE 1.4 km/h 3.2 km/h 59% 0 mm meteobridge W/m2
12:24 24.4 °C 15.9 °C 1022.6 hPa Calm   8 km/h 59% 0 mm meteobridge W/m2
12:29 24.4 °C 15.6 °C 1022.6 hPa SE 1.4 km/h 6.4 km/h 58% 0 mm meteobridge W/m2
12:34 24.6 °C 15.5 °C 1022.6 hPa ESE 6.4 km/h 9.7 km/h 57% 0 mm meteobridge W/m2
12:39 24.7 °C 15.6 °C 1022.6 hPa East 6.4 km/h 8 km/h 57% 0 mm meteobridge W/m2
12:44 24.8 °C 15.4 °C 1022.2 hPa Calm   8 km/h 56% 0 mm meteobridge W/m2
12:49 24.9 °C 15.2 °C 1022.2 hPa Calm   6.4 km/h 55% 0 mm meteobridge W/m2
12:54 24.9 °C 14.4 °C 1022.2 hPa ESE 3.2 km/h 6.4 km/h 52% 0 mm meteobridge W/m2
12:59 25.1 °C 14.3 °C 1022.2 hPa Calm   3.2 km/h 51% 0 mm meteobridge W/m2
13:04 25.3 °C 14.7 °C 1022.2 hPa ESE 1.4 km/h 1.6 km/h 52% 0 mm meteobridge W/m2
13:09 25.4 °C 15.1 °C 1022.2 hPa Calm   3.2 km/h 53% 0 mm meteobridge W/m2
13:14 25.6 °C 15.3 °C 1022.2 hPa Calm     53% 0 mm meteobridge W/m2
13:19 25.6 °C 15.3 °C 1022.2 hPa Calm   6.4 km/h 53% 0 mm meteobridge W/m2
13:24 25.5 °C 14.9 °C 1022.2 hPa ESE 1.4 km/h 6.4 km/h 52% 0 mm meteobridge W/m2
13:29 25.5 °C 14.6 °C 1022.2 hPa Calm     51% 0 mm meteobridge W/m2
13:34 25.6 °C 15 °C 1022.2 hPa ESE 1.4 km/h 8 km/h 52% 0 mm meteobridge W/m2
13:39 25.5 °C 15.2 °C 1021.9 hPa Calm   1.6 km/h 53% 0 mm meteobridge W/m2
13:44 25.5 °C 15.2 °C 1021.9 hPa SSE 1.4 km/h 6.4 km/h 53% 0 mm meteobridge W/m2
13:49 25.5 °C 15.2 °C 1021.9 hPa Calm   3.2 km/h 53% 0 mm meteobridge W/m2
13:54 25.6 °C 14.4 °C 1021.9 hPa South 1.4 km/h 1.6 km/h 50% 0 mm meteobridge W/m2
13:59 25.6 °C 14.7 °C 1021.9 hPa Calm   8 km/h 51% 0 mm meteobridge W/m2
14:04 25.6 °C 14.7 °C 1021.6 hPa SSE 1.4 km/h 1.6 km/h 51% 0 mm meteobridge W/m2
14:09 25.6 °C 15 °C 1021.6 hPa ESE 6.4 km/h 6.4 km/h 52% 0 mm meteobridge W/m2
14:14 25.4 °C 14.8 °C 1021.6 hPa ESE 6.4 km/h 9.7 km/h 52% 0 mm meteobridge W/m2
14:19 25.4 °C 14.8 °C 1021.6 hPa SE 3.2 km/h 8 km/h 52% 0 mm meteobridge W/m2
14:24 25.4 °C 14.8 °C 1021.6 hPa East 1.4 km/h 8 km/h 52% 0 mm meteobridge W/m2
14:29 25.5 °C 14.9 °C 1021.6 hPa Calm     52% 0 mm meteobridge W/m2
14:34 25.6 °C 15.3 °C 1021.6 hPa Calm   4.8 km/h 53% 0 mm meteobridge W/m2
14:39 25.7 °C 15.4 °C 1021.9 hPa Calm     53% 0 mm meteobridge W/m2
14:44 25.7 °C 15.4 °C 1021.9 hPa Calm   1.6 km/h 53% 0 mm meteobridge W/m2
14:49 25.7 °C 15.4 °C 1021.9 hPa Calm   3.2 km/h 53% 0 mm meteobridge W/m2
14:54 25.8 °C 15.8 °C 1021.9 hPa Calm   3.2 km/h 54% 0 mm meteobridge W/m2
14:59 25.8 °C 15.5 °C 1021.9 hPa Calm   1.6 km/h 53% 0 mm meteobridge W/m2
15:04 25.8 °C 15.5 °C 1021.9 hPa Calm   6.4 km/h 53% 0 mm meteobridge W/m2
15:09 25.9 °C 15.3 °C 1021.9 hPa Calm     52% 0 mm meteobridge W/m2
15:14 26 °C 15.7 °C 1021.9 hPa NNW 1.4 km/h 1.6 km/h 53% 0 mm meteobridge W/m2
15:19 26.1 °C 15.8 °C 1021.9 hPa Calm   1.6 km/h 53% 0 mm meteobridge W/m2
15:24 26.1 °C 16.1 °C 1021.9 hPa Calm   1.6 km/h 54% 0 mm meteobridge W/m2
15:29 26.2 °C 15.9 °C 1021.9 hPa Calm   4.8 km/h 53% 0 mm meteobridge W/m2
15:34 26.3 °C 16.2 °C 1021.6 hPa Calm   1.6 km/h 54% 0 mm meteobridge W/m2
15:39 26.2 °C 15.9 °C 1021.6 hPa Calm     53% 0 mm meteobridge W/m2
15:44 26.1 °C 16.1 °C 1021.6 hPa Calm     54% 0 mm meteobridge W/m2
15:49 26.1 °C 16.1 °C 1021.6 hPa Calm   3.2 km/h 54% 0 mm meteobridge W/m2
15:54 26.3 °C 16.5 °C 1021.2 hPa SE 1.4 km/h 3.2 km/h 55% 0 mm meteobridge W/m2
15:59 26.4 °C 16.3 °C 1021.2 hPa SE 1.4 km/h 6.4 km/h 54% 0 mm meteobridge W/m2
16:04 26.4 °C 16 °C 1021.2 hPa Calm   1.6 km/h 53% 0 mm meteobridge W/m2
16:09 26.4 °C 15.8 °C 1021.2 hPa Calm   9.7 km/h 52% 0 mm meteobridge W/m2
16:14 26.5 °C 16.1 °C 1021.2 hPa Calm   1.6 km/h 53% 0 mm meteobridge W/m2
16:19 26.4 °C 15.4 °C 1021.2 hPa Calm   3.2 km/h 51% 0 mm meteobridge W/m2
16:24 26.6 °C 16.2 °C 1021.2 hPa ESE 3.2 km/h 3.2 km/h 53% 0 mm meteobridge W/m2
16:29 26.7 °C 16 °C 1021.2 hPa Calm   1.6 km/h 52% 0 mm meteobridge W/m2
16:34 26.7 °C 15.7 °C 1021.2 hPa Calm   6.4 km/h 51% 0 mm meteobridge W/m2
16:39 26.7 °C 16.3 °C 1021.2 hPa NE 1.4 km/h 4.8 km/h 53% 0 mm meteobridge W/m2
16:44 26.7 °C 16 °C 1021.2 hPa East 1.4 km/h 3.2 km/h 52% 0 mm meteobridge W/m2
16:49 26.6 °C 15.9 °C 1021.2 hPa Calm   6.4 km/h 52% 0 mm meteobridge W/m2
16:54 26.4 °C 16 °C 1021.2 hPa Calm   1.6 km/h 53% 0 mm meteobridge W/m2
16:59 26.4 °C 15.8 °C 1020.9 hPa Calm   3.2 km/h 52% 0 mm meteobridge W/m2
17:04 26.5 °C 16.1 °C 1020.9 hPa ESE 3.2 km/h 8 km/h 53% 0 mm meteobridge W/m2
17:09 26.5 °C 16.1 °C 1021.2 hPa East 3.2 km/h 8 km/h 53% 0 mm meteobridge W/m2
17:14 26.4 °C 15.8 °C 1021.2 hPa ESE 1.4 km/h 8 km/h 52% 0 mm meteobridge W/m2
17:19 26.3 °C 16 °C 1021.2 hPa Calm   3.2 km/h 53% 0 mm meteobridge W/m2
17:24 26.2 °C 15.9 °C 1021.2 hPa ESE 1.4 km/h 1.6 km/h 53% 0 mm meteobridge W/m2
17:29 26.2 °C 16.2 °C 1021.2 hPa Calm   1.6 km/h 54% 0 mm meteobridge W/m2
17:34 26.1 °C 16.1 °C 1021.2 hPa Calm   3.2 km/h 54% 0 mm meteobridge W/m2
17:39 26.1 °C 16.1 °C 1021.2 hPa Calm   1.6 km/h 54% 0 mm meteobridge W/m2
17:44 26.2 °C 16.2 °C 1021.2 hPa Calm     54% 0 mm meteobridge W/m2
17:49 26.2 °C 16.2 °C 1021.2 hPa Calm   6.4 km/h 54% 0 mm meteobridge W/m2
17:54 26.2 °C 16.2 °C 1021.2 hPa ESE 1.4 km/h 8 km/h 54% 0 mm meteobridge W/m2
17:59 26.2 °C 15.9 °C 1021.2 hPa Calm   3.2 km/h 53% 0 mm meteobridge W/m2
18:04 26.2 °C 16.2 °C 1021.2 hPa Calm   3.2 km/h 54% 0 mm meteobridge W/m2
18:09 26.1 °C 16.1 °C 1021.2 hPa Calm     54% 0 mm meteobridge W/m2
18:14 25.9 °C 16.2 °C 1021.2 hPa Calm   1.6 km/h 55% 0 mm meteobridge W/m2
18:19 25.9 °C 16.4 °C 1021.2 hPa ESE 1.4 km/h 1.6 km/h 56% 0 mm meteobridge W/m2
18:24 25.8 °C 16.4 °C 1021.2 hPa Calm     56% 0 mm meteobridge W/m2
18:29 25.8 °C 16.4 °C 1021.2 hPa Calm     56% 0 mm meteobridge W/m2
18:34 25.8 °C 16.4 °C 1021.2 hPa Calm   1.6 km/h 56% 0 mm meteobridge W/m2
18:39 25.8 °C 16.4 °C 1021.2 hPa Calm   6.4 km/h 56% 0 mm meteobridge W/m2
18:44 25.8 °C 16.6 °C 1021.2 hPa Calm     57% 0 mm meteobridge W/m2
18:49 25.9 °C 16.4 °C 1021.2 hPa Calm   3.2 km/h 56% 0 mm meteobridge W/m2
18:54 25.9 °C 16.7 °C 1021.2 hPa ESE 3.2 km/h 3.2 km/h 57% 0 mm meteobridge W/m2
18:59 25.8 °C 16.9 °C 1021.2 hPa Calm     58% 0 mm meteobridge W/m2
19:04 25.8 °C 17.2 °C 1021.2 hPa Calm   3.2 km/h 59% 0 mm meteobridge W/m2
19:09 25.6 °C 17.3 °C 1021.2 hPa ESE 1.4 km/h 1.6 km/h 60% 0 mm meteobridge W/m2
19:14 25.4 °C 17.1 °C 1021.2 hPa Calm   3.2 km/h 60% 0 mm meteobridge W/m2
19:19 25.3 °C 17 °C 1021.2 hPa Calm     60% 0 mm meteobridge W/m2
19:24 25.2 °C 17.1 °C 1021.2 hPa Calm   1.6 km/h 61% 0 mm meteobridge W/m2
19:29 25 °C 17 °C 1021.2 hPa Calm     61% 0 mm meteobridge W/m2
19:34 24.8 °C 17 °C 1021.2 hPa Calm   3.2 km/h 62% 0 mm meteobridge W/m2
19:39 24.7 °C 16.9 °C 1020.9 hPa Calm   1.6 km/h 62% 0 mm meteobridge W/m2
19:44 24.6 °C 17.1 °C 1020.9 hPa SE 1.4 km/h 6.4 km/h 63% 0 mm meteobridge W/m2
19:49 24.4 °C 16.9 °C 1021.2 hPa Calm   6.4 km/h 63% 0 mm meteobridge W/m2
19:54 24.3 °C 17.1 °C 1021.2 hPa Calm   1.6 km/h 64% 0 mm meteobridge W/m2
19:59 24.2 °C 17.2 °C 1021.2 hPa Calm   8 km/h 65% 0 mm meteobridge W/m2
20:04 24.1 °C 17.1 °C 1021.2 hPa East 6.4 km/h 6.4 km/h 65% 0 mm meteobridge W/m2
20:09 23.9 °C 17.2 °C 1021.2 hPa Calm   1.6 km/h 66% 0 mm meteobridge W/m2
20:14 23.8 °C 17.1 °C 1021.2 hPa Calm   3.2 km/h 66% 0 mm meteobridge W/m2
20:19 23.7 °C 17.2 °C 1021.2 hPa Calm     67% 0 mm meteobridge W/m2
20:24 23.4 °C 17.2 °C 1021.2 hPa Calm     68% 0 mm meteobridge W/m2
20:29 23.3 °C 17.3 °C 1021.6 hPa Calm   1.6 km/h 69% 0 mm meteobridge W/m2
20:34 23.1 °C 17.1 °C 1021.2 hPa Calm   1.6 km/h 69% 0 mm meteobridge W/m2
20:39 23 °C 17 °C 1021.2 hPa Calm     69% 0 mm meteobridge W/m2
20:44 22.9 °C 17.1 °C 1021.2 hPa Calm     70% 0 mm meteobridge W/m2
20:49 22.8 °C 17 °C 1021.6 hPa Calm     70% 0 mm meteobridge W/m2
20:54 22.7 °C 17.2 °C 1021.6 hPa Calm     71% 0 mm meteobridge W/m2
20:59 22.6 °C 17.1 °C 1021.6 hPa Calm     71% 0 mm meteobridge W/m2
21:04 22.4 °C 17.1 °C 1021.6 hPa East 1.4 km/h 1.6 km/h 72% 0 mm meteobridge W/m2
21:09 22.3 °C 17 °C 1021.6 hPa Calm     72% 0 mm meteobridge W/m2
21:14 22.2 °C 17.1 °C 1021.9 hPa Calm     73% 0 mm meteobridge W/m2
21:19 22.1 °C 17 °C 1021.9 hPa Calm     73% 0 mm meteobridge W/m2
21:24 22.1 °C 17 °C 1021.9 hPa Calm     73% 0 mm meteobridge W/m2
21:29 21.9 °C 16.8 °C 1021.9 hPa Calm     73% 0 mm meteobridge W/m2
21:34 21.8 °C 17 °C 1021.9 hPa Calm     74% 0 mm meteobridge W/m2
21:39 21.6 °C 17 °C 1022.2 hPa Calm     75% 0 mm meteobridge W/m2
21:44 21.3 °C 16.9 °C 1022.2 hPa Calm     76% 0 mm meteobridge W/m2
21:49 20.9 °C 16.7 °C 1022.2 hPa Calm     77% 0 mm meteobridge W/m2
21:54 20.8 °C 16.8 °C 1022.2 hPa Calm     78% 0 mm meteobridge W/m2
21:59 20.6 °C 16.8 °C 1022.6 hPa Calm     79% 0 mm meteobridge W/m2
22:04 20.3 °C 16.7 °C 1022.6 hPa Calm     80% 0 mm meteobridge W/m2
22:09 20.2 °C 16.6 °C 1022.6 hPa Calm     80% 0 mm meteobridge W/m2
22:14 20.1 °C 16.7 °C 1022.9 hPa Calm     81% 0 mm meteobridge W/m2
22:19 19.9 °C 16.5 °C 1022.9 hPa Calm     81% 0 mm meteobridge W/m2
22:24 19.8 °C 16.4 °C 1022.9 hPa Calm     81% 0 mm meteobridge W/m2
22:29 19.7 °C 16.5 °C 1022.9 hPa Calm     82% 0 mm meteobridge W/m2
22:34 19.5 °C 16.3 °C 1022.9 hPa Calm     82% 0 mm meteobridge W/m2
22:39 19.3 °C 16.3 °C 1022.9 hPa Calm     83% 0 mm meteobridge W/m2
22:44 19.2 °C 16.4 °C 1023.2 hPa Calm     84% 0 mm meteobridge W/m2
22:49 19.1 °C 16.3 °C 1023.2 hPa Calm     84% 0 mm meteobridge W/m2
22:54 18.9 °C 16.3 °C 1023.2 hPa Calm     85% 0 mm meteobridge W/m2
22:59 18.8 °C 16.2 °C 1023.2 hPa Calm     85% 0 mm meteobridge W/m2
23:04 18.7 °C 16.1 °C 1023.2 hPa Calm     85% 0 mm meteobridge W/m2
23:09 18.6 °C 16.2 °C 1023.2 hPa Calm     86% 0 mm meteobridge W/m2
23:14 18.4 °C 16 °C 1023.2 hPa Calm     86% 0 mm meteobridge W/m2
23:19 18.4 °C 16 °C 1023.2 hPa Calm     86% 0 mm meteobridge W/m2
23:24 18.3 °C 16.1 °C 1023.2 hPa Calm     87% 0 mm meteobridge W/m2
23:29 18.2 °C 16 °C 1023.2 hPa Calm     87% 0 mm meteobridge W/m2
23:34 18.1 °C 15.9 °C 1023.2 hPa Calm     87% 0 mm meteobridge W/m2
23:39 18.1 °C 15.9 °C 1023.2 hPa Calm     87% 0 mm meteobridge W/m2
23:44 17.9 °C 15.9 °C 1023.2 hPa Calm     88% 0 mm meteobridge W/m2
23:49 17.9 °C 15.9 °C 1023.2 hPa Calm     88% 0 mm meteobridge W/m2
23:54 17.8 °C 15.8 °C 1023.2 hPa Calm     88% 0 mm meteobridge W/m2
23:59 17.7 °C 15.9 °C 1023.2 hPa Calm     89% 0 mm meteobridge W/m2
EllijayWeather
Compliments of Weather Underground - 2.5 mb